datetime,datetime.matlab,abspress.hpa,outtemp.c,dewpoint.c,outdoorhumidity,hourrainfall.mm,gust.kmh,windchill.c,winddirection,windspeed.kmh,interval.min
2016-04-08T00:04:03,736546.0028,986.8,17.2,13.2,77,0,1.1,17.2,E,0,5
2016-04-08T00:09:03,736546.0063,986.7,17.2,13.5,79,0,0,17.2,SE,0,5
2016-04-08T00:14:03,736546.0098,986.9,17.2,13.4,78,0,0,17.2,E,0,5
2016-04-08T00:19:03,736546.0132,986.9,17.2,13.4,78,0,0,17.2,E,0,5
2016-04-08T00:24:03,736546.0167,986.9,17.2,13.4,78,0,0,17.2,E,0,5
2016-04-08T00:29:03,736546.0202,987.1,17.2,13.5,79,0,0,17.2,E,0,5
2016-04-08T00:34:03,736546.0236,987.2,17.2,13.7,80,0,0,17.2,E,0,5
2016-04-08T00:39:03,736546.0271,987.4,17.1,13.5,79,0,0,17.1,E,0,5
2016-04-08T00:44:03,736546.0306,987.3,17,13.4,79,0,0,17,E,0,5
2016-04-08T00:49:03,736546.0341,987.3,16.9,13.4,80,0,1.1,16.9,SE,0,5
2016-04-08T00:54:03,736546.0375,987.3,16.8,13.4,80,0,0,16.8,SE,0,5
2016-04-08T00:59:03,736546.041,987.5,16.6,13.2,80,0,0,16.6,SE,0,5
2016-04-08T01:04:03,736546.0445,987.3,16.6,13.3,81,0,0,16.6,SE,0,5
2016-04-08T01:09:03,736546.048,987.5,16.5,13.1,80,0,0,16.5,SE,0,5
2016-04-08T01:14:03,736546.0514,987.4,16.4,13,80,0,0,16.4,SE,0,5
2016-04-08T01:19:03,736546.0549,987.3,16.3,12.9,80,0,0,16.3,SE,0,5
2016-04-08T01:24:03,736546.0584,987.4,16.3,12.9,80,0,0,16.3,SE,0,5
2016-04-08T01:29:03,736546.0618,987.5,16.2,12.6,79,0,0,16.2,SE,0,5
2016-04-08T01:34:03,736546.0653,987.5,16.2,12.6,79,0,0,16.2,SE,0,5
2016-04-08T01:39:03,736546.0688,987.6,16.2,12.4,78,0,0,16.2,SE,0,5
2016-04-08T01:44:03,736546.0723,987.9,16.1,12.3,78,0,0,16.1,SE,0,5
2016-04-08T01:49:03,736546.0757,987.6,16.1,12.3,78,0,0,16.1,SE,0,5
2016-04-08T01:54:03,736546.0792,987.6,16,12.4,79,0,0,16,SE,0,5
2016-04-08T01:59:03,736546.0827,987.9,15.9,12.1,78,0,0,15.9,SE,0,5
2016-04-08T02:04:03,736546.0861,987.9,15.8,12,78,0,0,15.8,SE,0,5
2016-04-08T02:09:03,736546.0896,987.9,15.7,11.9,78,0,0,15.7,SE,0,5
2016-04-08T02:14:03,736546.0931,987.7,15.6,12,79,0,0,15.6,SE,0,5
2016-04-08T02:19:03,736546.0966,987.9,15.5,11.9,79,0,0,15.5,SE,0,5
2016-04-08T02:24:03,736546.1,988.1,15.5,11.9,79,0,1.1,15.5,SE,0,5
2016-04-08T02:29:03,736546.1035,988,15.4,12,80,0,0,15.4,SE,0,5
2016-04-08T02:34:03,736546.107,987.9,15.4,12,80,0,0,15.4,SE,0,5
2016-04-08T02:39:03,736546.1105,988,15.3,11.9,80,0,1.1,15.3,SE,0,5
2016-04-08T02:44:03,736546.1139,988.1,15.3,12.1,81,0,1.1,15.3,S,1.1,5
2016-04-08T02:49:03,736546.1174,988,15.2,12,81,0,1.1,15.2,E,0,5
2016-04-08T02:54:03,736546.1209,988.1,15.1,12.1,82,0,1.1,15.1,SE,1.1,5
2016-04-08T02:59:03,736546.1243,988.1,15.1,12.1,82,0,2.5,15.1,SE,1.1,5
2016-04-08T03:04:03,736546.1278,988.1,15,12.2,83,0,2.5,15,SE,1.1,5
2016-04-08T03:09:03,736546.1313,988.2,15,12.3,84,0,1.1,15,E,0,5
2016-04-08T03:14:03,736546.1348,988.3,14.9,12.2,84,0,1.1,14.9,NE,0,5
2016-04-08T03:19:03,736546.1382,988.4,14.9,12.4,85,0,1.1,14.9,E,0,5
2016-04-08T03:24:03,736546.1417,988.3,14.8,12.5,86,0,2.5,14.8,S,1.1,5
2016-04-08T03:29:03,736546.1452,988.4,14.7,12.4,86,0,1.1,14.7,SE,0,5
2016-04-08T03:34:03,736546.1486,988.4,14.7,12.6,87,0,1.1,14.7,S,0,5
2016-04-08T03:39:03,736546.1521,988.3,14.6,12.5,87,0,0,14.6,SE,0,5
2016-04-08T03:44:03,736546.1556,988.2,14.4,12.5,88,0,0,14.4,ESE,0,5
2016-04-08T03:49:03,736546.1591,988.5,14.3,12.4,88,0,0,14.3,SE,0,5
2016-04-08T03:54:03,736546.1625,988.6,14.1,12.2,88,0,0,14.1,SE,0,5
2016-04-08T03:59:03,736546.166,988.5,14.1,12.3,89,0,2.5,14.1,S,1.1,5
2016-04-08T04:04:03,736546.1695,988.6,14.1,12.5,90,0,1.1,14.1,SE,0,5
2016-04-08T04:09:03,736546.173,988.8,14,12.4,90,0,2.5,14,S,1.1,5
2016-04-08T04:14:03,736546.1764,988.9,13.9,12.5,91,0,1.1,13.9,S,0,5
2016-04-08T04:19:03,736546.1799,988.7,13.9,12.5,91,0,0,13.9,SE,0,5
2016-04-08T04:24:03,736546.1834,988.8,13.9,12.5,91,0,2.5,13.9,SE,1.1,5
2016-04-08T04:29:03,736546.1868,988.9,13.8,12.5,92,0,0,13.8,SE,0,5
2016-04-08T04:34:03,736546.1903,988.9,13.8,12.5,92,0,1.1,13.8,SE,0,5
2016-04-08T04:39:03,736546.1938,988.9,13.8,12.5,92,0,1.1,13.8,S,0,5
2016-04-08T04:44:03,736546.1973,988.9,13.7,12.4,92,0,0,13.7,SE,0,5
2016-04-08T04:49:03,736546.2007,988.7,13.7,12.4,92,0,0,13.7,E,0,5
2016-04-08T04:54:03,736546.2042,989,13.7,12.4,92,0,1.1,13.7,SE,0,5
2016-04-08T04:59:03,736546.2077,988.7,13.6,12.3,92,0,1.1,13.6,SE,0,5
2016-04-08T05:04:03,736546.2111,988.8,13.6,12.3,92,0,2.5,13.6,S,1.1,5
2016-04-08T05:09:03,736546.2146,989.1,13.6,12.3,92,0,1.1,13.6,SE,0,5
2016-04-08T05:14:03,736546.2181,989.2,13.6,12.3,92,0,2.5,13.6,E,1.1,5
2016-04-08T05:19:03,736546.2216,989.1,13.6,12.5,93,0,2.5,13.6,E,1.1,5
2016-04-08T05:24:03,736546.225,989.2,13.7,12.6,93,0,0,13.7,SE,0,5
2016-04-08T05:29:03,736546.2285,989.1,13.7,12.6,93,0,2.5,13.7,SE,1.1,5
2016-04-08T05:34:03,736546.232,989.1,13.7,12.6,93,0,1.1,13.7,SE,0,5
2016-04-08T05:39:03,736546.2355,989.1,13.7,12.6,93,0,1.1,13.7,ESE,0,5
2016-04-08T05:44:03,736546.2389,989,13.7,12.6,93,0,0,13.7,SE,0,5
2016-04-08T05:49:03,736546.2424,989.1,13.7,12.8,94,0,2.5,13.7,S,1.1,5
2016-04-08T05:54:03,736546.2459,989,13.6,12.7,94,0,2.5,13.6,SE,1.1,5
2016-04-08T05:59:03,736546.2493,989.1,13.6,12.7,94,0,1.1,13.6,SE,0,5
2016-04-08T06:04:03,736546.2528,989.1,13.6,12.7,94,0,2.5,13.6,SE,1.1,5
2016-04-08T06:09:03,736546.2563,989.1,13.6,12.7,94,0,3.6,13.6,S,2.5,5
2016-04-08T06:14:03,736546.2598,989.2,13.6,12.8,95,0,2.5,13.6,SE,1.1,5
2016-04-08T06:19:03,736546.2632,989.3,13.6,12.8,95,0,2.5,13.6,SE,1.1,5
2016-04-08T06:24:03,736546.2667,988.9,13.7,12.9,95,0,2.5,13.7,E,1.1,5
2016-04-08T06:29:03,736546.2702,989,13.7,12.9,95,0,1.1,13.7,E,0,5
2016-04-08T06:34:03,736546.2736,989.3,13.8,13.2,96,0,0,13.8,SE,0,5
2016-04-08T06:39:03,736546.2771,989.2,13.8,13.2,96,0,0,13.8,S,0,5
2016-04-08T06:44:03,736546.2806,989,13.8,13.2,96,0,0,13.8,SE,0,5
2016-04-08T06:49:03,736546.2841,989.1,13.8,13.2,96,0,0,13.8,SE,0,5
2016-04-08T06:54:03,736546.2875,989.2,13.8,13.2,96,0,1.1,13.8,SE,0,5
2016-04-08T06:59:03,736546.291,989.1,13.8,13.2,96,0,0,13.8,SE,0,5
2016-04-08T07:04:03,736546.2945,989.2,13.8,13.2,96,0,1.1,13.8,S,0,5
2016-04-08T07:09:03,736546.298,989.2,13.8,13.2,96,0,0,13.8,SE,0,5
2016-04-08T07:14:03,736546.3014,989.2,13.8,13.2,96,0,0,13.8,SE,0,5
2016-04-08T07:19:03,736546.3049,989.2,13.8,13.2,96,0,0,13.8,SE,0,5
2016-04-08T07:24:03,736546.3084,989,13.9,13.3,96,0,0,13.9,SE,0,5
2016-04-08T07:29:03,736546.3118,989.3,13.9,13.3,96,0,1.1,13.9,SE,0,5
2016-04-08T07:34:03,736546.3153,989.2,13.9,13.3,96,0,2.5,13.9,S,1.1,5
2016-04-08T07:39:03,736546.3188,989.2,13.9,13.3,96,0,0,13.9,SE,0,5
2016-04-08T07:44:03,736546.3223,988.9,13.9,13.4,97,0,0,13.9,S,0,5
2016-04-08T07:49:03,736546.3257,988.9,13.9,13.4,97,0,1.1,13.9,S,0,5
2016-04-08T07:54:03,736546.3292,989.1,13.9,13.4,97,0,0,13.9,S,0,5
2016-04-08T07:59:03,736546.3327,988.9,13.8,13.3,97,0,0,13.8,SE,0,5
2016-04-08T08:04:03,736546.3361,988.9,13.7,13.1,96,0,0,13.7,SE,0,5
2016-04-08T08:09:03,736546.3396,989.1,13.6,13,96,0,0,13.6,SE,0,5
2016-04-08T08:14:03,736546.3431,989.1,13.6,13,96,0,0,13.6,E,0,5
2016-04-08T08:19:03,736546.3466,989.4,13.5,12.9,96,0,0,13.5,E,0,5
2016-04-08T08:24:03,736546.35,989.4,13.4,12.6,95,0,0,13.4,E,0,5
2016-04-08T08:29:03,736546.3535,989.1,13.4,12.6,95,0,0,13.4,SE,0,5
2016-04-08T08:34:03,736546.357,989.2,13.3,12.5,95,0,0,13.3,SE,0,5
2016-04-08T08:39:03,736546.3605,989.4,13.3,12.5,95,0,0,13.3,E,0,5
2016-04-08T08:44:03,736546.3639,989.4,13.3,12.5,95,0,0,13.3,E,0,5
2016-04-08T08:49:03,736546.3674,989.2,13.2,12.3,94,0,0,13.2,E,0,5
2016-04-08T08:54:03,736546.3709,989.4,13.2,12.3,94,0,0,13.2,E,0,5
2016-04-08T08:59:03,736546.3743,989.4,13.2,12.3,94,0,0,13.2,E,0,5
2016-04-08T09:04:03,736546.3778,989.4,13.2,12.3,94,0,0,13.2,E,0,5
2016-04-08T09:09:03,736546.3813,989.3,13.2,12.3,94,0,0,13.2,E,0,5
2016-04-08T09:14:03,736546.3848,989.2,13.2,12.3,94,0,0,13.2,E,0,5
2016-04-08T09:19:03,736546.3882,989.4,13.1,12.2,94,0,0,13.1,E,0,5
2016-04-08T09:24:03,736546.3917,989.5,13.1,12.2,94,0,0,13.1,NE,0,5
2016-04-08T09:29:03,736546.3952,989.4,13.1,12.2,94,0,0,13.1,E,0,5
2016-04-08T09:34:03,736546.3986,989.4,13,12.1,94,0,0,13,E,0,5
2016-04-08T09:39:03,736546.4021,989.3,13,11.9,93,0,0,13,E,0,5
2016-04-08T09:44:03,736546.4056,989.4,13,11.9,93,0,0,13,E,0,5
2016-04-08T09:49:03,736546.4091,989.3,13,12.1,94,0,0,13,SE,0,5
2016-04-08T09:54:03,736546.4125,989.6,12.9,12,94,0,0,12.9,SE,0,5
2016-04-08T09:59:03,736546.416,989.3,12.9,12,94,0,0,12.9,SE,0,5
2016-04-08T10:04:03,736546.4195,989.6,12.8,11.9,94,0,0,12.8,SE,0,5
2016-04-08T10:09:03,736546.423,989.7,12.8,11.9,94,0,0,12.8,SE,0,5
2016-04-08T10:14:03,736546.4264,989.7,12.8,11.9,94,0,0,12.8,SE,0,5
2016-04-08T10:19:03,736546.4299,989.9,12.8,11.9,94,0,0,12.8,SE,0,5
2016-04-08T10:24:03,736546.4334,989.7,12.8,11.9,94,0,0,12.8,SE,0,5
2016-04-08T10:29:03,736546.4368,989.8,12.9,12.1,95,0,0,12.9,SE,0,5
2016-04-08T10:34:03,736546.4403,989.6,12.9,12.1,95,0,0,12.9,SE,0,5
2016-04-08T10:39:03,736546.4438,989.8,12.9,12.1,95,0,0,12.9,SE,0,5
2016-04-08T10:44:03,736546.4473,989.9,12.9,12.1,95,0,0,12.9,SE,0,5
2016-04-08T10:49:03,736546.4507,990,12.9,12.1,95,0,0,12.9,SE,0,5
2016-04-08T10:54:03,736546.4542,990,13,12.4,96,0,0,13,SE,0,5
2016-04-08T10:59:03,736546.4577,990.1,13,12.4,96,0,0,13,SE,0,5
2016-04-08T11:04:03,736546.4611,990,13,12.4,96,0,0,13,SE,0,5
2016-04-08T11:09:03,736546.4646,990,13,12.4,96,0,2.5,13,S,1.1,5
2016-04-08T11:14:03,736546.4681,990.2,13.1,12.7,97,0,0,13.1,SE,0,5
2016-04-08T11:19:03,736546.4716,990.2,13.1,12.7,97,0,3.6,13.1,S,2.5,5
2016-04-08T11:24:03,736546.475,990.3,13.1,12.7,97,0,2.5,13.1,S,1.1,5
2016-04-08T11:29:03,736546.4785,990.2,13,12.6,97,0,2.5,13,S,1.1,5
2016-04-08T11:34:03,736546.482,990.3,13,12.6,97,0,0,13,SE,0,5
2016-04-08T11:39:03,736546.4855,990.3,13,12.6,97,0,2.5,13,S,1.1,5
2016-04-08T11:44:03,736546.4889,990.3,13,12.7,98,0,3.6,13,SE,2.5,5
2016-04-08T11:49:03,736546.4924,990.3,13,12.7,98,0,2.5,13,SE,1.1,5
2016-04-08T11:54:03,736546.4959,990.3,13,12.7,98,0,0,13,SE,0,5
2016-04-08T11:59:03,736546.4993,990.4,13,12.7,98,0,2.5,13,S,1.1,5
2016-04-08T12:04:03,736546.5028,990.6,13.1,12.8,98,0,2.5,13.1,SE,1.1,5
2016-04-08T12:09:03,736546.5063,990.6,13.1,12.8,98,0,2.5,13.1,S,1.1,5
2016-04-08T12:14:03,736546.5098,990.8,13.2,13.1,99,0,3.6,13.2,SSE,1.1,5
2016-04-08T12:19:03,736546.5132,990.8,13.2,13.1,99,0,3.6,13.2,SSE,1.1,5
2016-04-08T12:24:03,736546.5167,990.6,13.2,13.1,99,0,3.6,13.2,SE,3.6,5
2016-04-08T12:29:03,736546.5202,990.5,13.3,13.2,99,0,2.5,13.3,S,1.1,5
2016-04-08T12:34:03,736546.5236,990.6,13.4,13.3,99,0,3.6,13.4,S,2.5,5
2016-04-08T12:39:03,736546.5271,990.7,13.4,13.3,99,0,3.6,13.4,S,2.5,5
2016-04-08T12:44:03,736546.5306,990.7,13.5,13.4,99,0,2.5,13.5,S,1.1,5
2016-04-08T12:49:03,736546.5341,990.7,13.6,13.5,99,0,3.6,13.6,SE,2.5,5
2016-04-08T12:54:03,736546.5375,990.8,13.8,13.7,99,0,3.6,13.8,S,1.1,5
2016-04-08T12:59:03,736546.541,990.6,13.9,13.8,99,0,3.6,13.9,SE,2.5,5
2016-04-08T13:04:03,736546.5445,990.8,13.9,13.8,99,0,2.5,13.9,SE,1.1,5
2016-04-08T13:09:03,736546.548,990.9,14,13.9,99,0,3.6,14,SE,2.5,5
2016-04-08T13:14:03,736546.5514,990.8,14.2,14.1,99,0,3.6,14.2,SE,2.5,5
2016-04-08T13:19:03,736546.5549,990.9,14.3,14.2,99,0,3.6,14.3,S,2.5,5
2016-04-08T13:24:03,736546.5584,990.9,14.4,14.1,98,0,3.6,14.4,S,2.5,5
2016-04-08T13:29:03,736546.5618,991.1,14.5,14.2,98,0,3.6,14.5,S,2.5,5
2016-04-08T13:34:03,736546.5653,991.1,14.6,14.1,97,0,3.6,14.6,S,1.1,5
2016-04-08T13:39:03,736546.5688,990.9,14.8,14.2,96,0,6.1,14.8,SE,3.6,5
2016-04-08T13:44:03,736546.5723,990.8,15,14.2,95,0,5,15,SE,2.5,5
2016-04-08T13:49:03,736546.5757,991,15.1,14.2,94,0,2.5,15.1,SE,1.1,5
2016-04-08T13:54:03,736546.5792,990.9,15.3,14.2,93,0,5,15.3,E,2.5,5
2016-04-08T13:59:03,736546.5827,991,15.5,14.2,92,0,3.6,15.5,NE,1.1,5
2016-04-08T14:04:03,736546.5861,991.3,15.7,14.1,90,0,2.5,15.7,NE,1.1,5
2016-04-08T14:09:03,736546.5896,991.3,16.4,14.4,88,0,2.5,16.4,S,1.1,5
2016-04-08T14:14:03,736546.5931,991.3,17.5,14.2,81,0,2.5,17.5,SE,1.1,5
2016-04-08T14:19:03,736546.5966,991.1,18.3,14.2,77,0,1.1,18.3,SE,0,5
2016-04-08T14:24:03,736546.6,991.1,19,13.9,72,0,3.6,19,E,2.5,5
2016-04-08T14:29:03,736546.6035,991.2,19.5,14.1,71,0,1.1,19.5,SE,0,5
2016-04-08T14:34:03,736546.607,990.9,20.1,14.7,71,0,2.5,20.1,E,1.1,5
2016-04-08T14:39:03,736546.6105,991.1,20.2,14.1,68,0,5,20.2,SW,3.6,5
2016-04-08T14:44:03,736546.6139,991.1,20,13.9,68,0,2.5,20,SE,1.1,5
2016-04-08T14:49:03,736546.6174,991.1,19.4,13.4,68,0,3.6,19.4,E,2.5,5
2016-04-08T14:54:03,736546.6209,991.3,19,13.2,69,0,5,19,SW,3.6,5
2016-04-08T14:59:03,736546.6243,991.1,19,13.2,69,0,5,19,SE,3.6,5
2016-04-08T15:04:03,736546.6278,991.1,19,13.2,69,0,5,19,SE,2.5,5
2016-04-08T15:09:03,736546.6313,991.3,19.1,13.1,68,0,5,19.1,S,3.6,5
2016-04-08T15:14:03,736546.6348,991.2,19.4,13.8,70,0,3.6,19.4,SE,2.5,5
2016-04-08T15:19:03,736546.6382,991,19.7,13.9,69,0,1.1,19.7,S,0,5
2016-04-08T15:24:03,736546.6417,991.4,20.1,13.6,66,0,6.1,20.1,SE,3.6,5
2016-04-08T15:29:03,736546.6452,991.5,19.9,13.4,66,0,1.1,19.9,E,0,5
2016-04-08T15:34:03,736546.6486,991.2,19.4,12.9,66,0,7.2,19.4,N,5,5
2016-04-08T15:39:03,736546.6521,991.3,19,13.2,69,0,3.6,19,NE,2.5,5
2016-04-08T15:44:03,736546.6556,991.3,19.2,13.6,70,0,6.1,19.2,SSW,5,5
2016-04-08T15:49:03,736546.6591,991.1,19.5,13.7,69,0,5,19.5,SE,2.5,5
2016-04-08T15:54:03,736546.6625,991.1,19.5,13,66,0,1.1,19.5,E,0,5
2016-04-08T15:59:03,736546.666,991.2,19.3,12.8,66,0,2.5,19.3,E,1.1,5
2016-04-08T16:04:03,736546.6695,991.1,19,13.2,69,0,3.6,19,E,2.5,5
2016-04-08T16:09:03,736546.673,991.4,19.2,13.8,71,0,8.6,19.2,NE,5,5
2016-04-08T16:14:03,736546.6764,991.4,20.3,14.7,70,0,3.6,20.3,NE,2.5,5
2016-04-08T16:19:03,736546.6799,991.3,20.8,14,65,0,8.6,20.8,NE,6.1,5
2016-04-08T16:24:03,736546.6834,991.3,20.7,13.9,65,0,1.1,20.7,E,0,5
2016-04-08T16:29:03,736546.6868,991.3,20.4,13.1,63,0,2.5,20.4,NE,1.1,5
2016-04-08T16:34:03,736546.6903,991.4,21.2,14.1,64,0,2.5,21.2,NE,1.1,5
2016-04-08T16:39:03,736546.6938,991.3,22,14.9,64,0,5,22,E,2.5,5
2016-04-08T16:44:03,736546.6973,991.4,21.5,13.4,60,0,3.6,21.5,S,2.5,5
2016-04-08T16:49:03,736546.7007,991.4,21.1,13.6,62,0,1.1,21.1,SE,0,5
2016-04-08T16:54:03,736546.7042,991.3,21.6,14,62,0,3.6,21.6,S,2.5,5
2016-04-08T16:59:03,736546.7077,991.3,21.4,13.3,60,0,3.6,21.4,SE,2.5,5
2016-04-08T17:04:03,736546.7111,991.3,21.2,13.4,61,0,2.5,21.2,E,1.1,5
2016-04-08T17:09:03,736546.7146,991.6,21.2,13.2,60,0,2.5,21.2,S,1.1,5
2016-04-08T17:14:03,736546.7181,991.4,21.1,13.1,60,0,2.5,21.1,SSW,1.1,5
2016-04-08T17:19:03,736546.7216,991.2,20.9,12.9,60,0,2.5,20.9,SE,1.1,5
2016-04-08T17:24:03,736546.725,991,20.9,12.4,58,0,2.5,20.9,SE,1.1,5
2016-04-08T17:29:03,736546.7285,991,21.2,12.9,59,0,5,21.2,SSW,2.5,5
2016-04-08T17:34:03,736546.732,991.2,21.5,12.1,55,0,3.6,21.5,SE,2.5,5
2016-04-08T17:39:03,736546.7355,991.2,21.7,12.8,57,0,2.5,21.7,E,1.1,5
2016-04-08T17:44:03,736546.7389,991.2,21.6,13,58,0,3.6,21.6,NE,2.5,5
2016-04-08T17:49:03,736546.7424,991.4,21.2,12.9,59,0,2.5,21.2,S,1.1,5
2016-04-08T17:54:03,736546.7459,991.2,20.9,12.4,58,0,2.5,20.9,E,1.1,5
2016-04-08T17:59:03,736546.7493,991.2,22,13.9,60,0,0,22,E,0,5
2016-04-08T18:04:03,736546.7528,991.2,23.5,12.8,51,0,2.5,23.5,SW,1.1,5
2016-04-08T18:09:03,736546.7563,991.3,24.5,11.8,45,0,6.1,24.5,E,5,5
2016-04-08T18:14:03,736546.7598,991.2,24.1,12.1,47,0,0,24.1,SE,0,5
2016-04-08T18:19:03,736546.7632,991.2,24.1,12.1,47,0,0,24.1,SE,0,5
2016-04-08T18:24:03,736546.7667,991.3,23.7,11.4,46,0,2.5,23.7,E,1.1,5
2016-04-08T18:29:03,736546.7702,991.1,23.2,12.2,50,0,1.1,23.2,W,0,5
2016-04-08T18:34:03,736546.7736,991.2,22.7,12.4,52,0,2.5,22.7,E,1.1,5
2016-04-08T18:39:03,736546.7771,991.1,22.3,13.9,59,0,3.6,22.3,S,1.1,5
2016-04-08T18:44:03,736546.7806,991.2,21.8,12.7,56,0,0,21.8,SE,0,5
2016-04-08T18:49:03,736546.7841,991.1,21.3,13.2,60,0,1.1,21.3,SE,0,5
2016-04-08T18:54:03,736546.7875,991.2,21,13.2,61,0,1.1,21,E,0,5
2016-04-08T18:59:03,736546.791,991.2,20.8,12.8,60,0,0,20.8,E,0,5
2016-04-08T19:04:03,736546.7945,991.2,20.6,13.1,62,0,1.1,20.6,NE,0,5
2016-04-08T19:09:03,736546.798,991.5,20.4,12.7,61,0,1.1,20.4,E,0,5
2016-04-08T19:14:03,736546.8014,991.3,20.3,12.8,62,0,1.1,20.3,S,0,5
2016-04-08T19:19:03,736546.8049,991.3,20.3,13.3,64,0,0,20.3,E,0,5
2016-04-08T19:24:03,736546.8084,991.4,20.6,13.8,65,0,0,20.6,SE,0,5
2016-04-08T19:29:03,736546.8118,991.2,21.2,13.9,63,0,3.6,21.2,N,2.5,5
2016-04-08T19:34:03,736546.8153,991.5,21.6,13.5,60,0,2.5,21.6,E,1.1,5
2016-04-08T19:39:03,736546.8188,991.5,21.6,13.8,61,0,2.5,21.6,NE,1.1,5
2016-04-08T19:44:03,736546.8223,991.3,21.5,13.4,60,0,1.1,21.5,E,0,5
2016-04-08T19:49:03,736546.8257,991.3,21.4,13.6,61,0,2.5,21.4,E,1.1,5
2016-04-08T19:54:03,736546.8292,991.2,21.3,13.2,60,0,1.1,21.3,SE,0,5
2016-04-08T19:59:03,736546.8327,991.4,21.4,13.3,60,0,1.1,21.4,SE,0,5
2016-04-08T20:04:03,736546.8361,991.4,21.7,12.3,55,0,3.6,21.7,SW,2.5,5
2016-04-08T20:09:03,736546.8396,991.4,21.6,11.6,53,0,2.5,21.6,SE,1.1,5
2016-04-08T20:14:03,736546.8431,991.6,21.5,12.4,56,0,2.5,21.5,S,1.1,5
2016-04-08T20:19:03,736546.8466,991.4,21.1,13.1,60,0,1.1,21.1,E,0,5
2016-04-08T20:24:03,736546.85,991.6,20.9,13.1,61,0,0,20.9,E,0,5
2016-04-08T20:29:03,736546.8535,991.5,20.7,12.9,61,0,0,20.7,E,0,5
2016-04-08T20:34:03,736546.857,991.4,20.7,13.2,62,0,1.1,20.7,E,1.1,5
2016-04-08T20:39:03,736546.8605,991.5,20.7,13.4,63,0,2.5,20.7,N,1.1,5
2016-04-08T20:44:03,736546.8639,991.7,20.8,13.3,62,0,0,20.8,E,0,5
2016-04-08T20:49:03,736546.8674,991.3,20.9,13.6,63,0,0,20.9,E,0,5
2016-04-08T20:54:03,736546.8709,991.4,21,13.5,62,0,1.1,21,SE,0,5
2016-04-08T20:59:03,736546.8743,991.4,21,13,60,0,1.1,21,E,1.1,5
2016-04-08T21:04:03,736546.8778,991.5,21,12.4,58,0,1.1,21,SE,0,5
2016-04-08T21:09:03,736546.8813,991.5,21.1,13.1,60,0,3.6,21.1,SW,2.5,5
2016-04-08T21:14:03,736546.8848,991.7,21.2,12.9,59,0,1.1,21.2,SE,0,5
2016-04-08T21:19:03,736546.8882,991.5,21.3,12.5,57,0,5,21.3,E,3.6,5
2016-04-08T21:24:03,736546.8917,991.6,21.4,12.8,58,0,3.6,21.4,S,2.5,5
2016-04-08T21:29:03,736546.8952,991.4,21.3,12.7,58,0,0,21.3,SE,0,5
2016-04-08T21:34:03,736546.8986,991.7,21.3,13,59,0,1.1,21.3,E,0,5
2016-04-08T21:39:03,736546.9021,991.5,21.3,13.8,62,0,3.6,21.3,NE,2.5,5
2016-04-08T21:44:03,736546.9056,991.5,21.3,13,59,0,2.5,21.3,E,1.1,5
2016-04-08T21:49:03,736546.9091,991.6,21.3,13,59,0,2.5,21.3,SE,1.1,5
2016-04-08T21:54:03,736546.9125,991.6,21.4,12.8,58,0,1.1,21.4,E,0,5
2016-04-08T21:59:03,736546.916,991.4,21.5,12.7,57,0,2.5,21.5,SE,1.1,5
2016-04-08T22:04:03,736546.9195,991.7,21.6,12.7,57,0,2.5,21.6,SW,1.1,5
2016-04-08T22:09:03,736546.923,991.5,21.6,12.2,55,0,2.5,21.6,SE,1.1,5
2016-04-08T22:14:03,736546.9264,991.7,21.4,12.8,58,0,1.1,21.4,S,0,5
2016-04-08T22:19:03,736546.9299,991.8,21.2,12.6,58,0,5,21.2,NE,3.6,5
2016-04-08T22:24:03,736546.9334,991.7,21.2,12.1,56,0,3.6,21.2,ESE,2.5,5
2016-04-08T22:29:03,736546.9368,991.7,22,12.8,56,0,5,22,SE,3.6,5
2016-04-08T22:34:03,736546.9403,991.5,23,11.7,49,0,2.5,23,S,0,5
2016-04-08T22:39:03,736546.9438,991.6,23.4,12.1,49,0,2.5,23.4,ESE,1.1,5
2016-04-08T22:44:03,736546.9473,991.5,23.1,11.8,49,0,3.6,23.1,S,2.5,5
2016-04-08T22:49:03,736546.9507,991.7,22.8,11.6,49,0,2.5,22.8,SSE,1.1,5
2016-04-08T22:54:03,736546.9542,991.6,22.6,11.7,50,0,3.6,22.6,NE,2.5,5
2016-04-08T22:59:03,736546.9577,991.6,22.3,12,52,0,3.6,22.3,N,2.5,5
2016-04-08T23:04:03,736546.9611,991.6,21.9,11.6,52,0,2.5,21.9,SE,1.1,5
2016-04-08T23:09:03,736546.9646,991.9,21.7,11.4,52,0,2.5,21.7,NNE,1.1,5
2016-04-08T23:14:03,736546.9681,991.6,21.3,11.6,54,0,0,21.3,S,0,5
2016-04-08T23:19:03,736546.9716,991.9,21.1,11.7,55,0,0,21.1,SE,0,5
2016-04-08T23:24:03,736546.975,991.8,20.8,12.3,58,0,1.1,20.8,SE,0,5
2016-04-08T23:29:03,736546.9785,991.8,20.6,12.3,59,0,0,20.6,SE,0,5
2016-04-08T23:34:03,736546.982,991.9,20.5,12.5,60,0,1.1,20.5,NE,0,5
2016-04-08T23:39:03,736546.9855,991.8,20.4,12.4,60,0,2.5,20.4,S,1.1,5
2016-04-08T23:44:03,736546.9889,991.9,20.5,11.7,57,0,2.5,20.5,E,1.1,5
2016-04-08T23:49:03,736546.9924,992.1,20.6,12.3,59,0,2.5,20.6,E,0,5
2016-04-08T23:54:03,736546.9959,992,20.6,12.1,58,0,1.1,20.6,E,0,5
2016-04-08T23:59:03,736546.9993,991.9,20.6,12.3,59,0,2.5,20.6,NE,1.1,5
2016-05-08T00:04:03,736547.0028,992.1,20.5,12.2,59,0,1.1,20.5,S,0,5
2016-05-08T00:09:03,736547.0063,992,20.4,12.4,60,0,1.1,20.4,E,0,5
2016-05-08T00:14:03,736547.0098,992.1,20.2,12.2,60,0,3.6,20.2,SE,1.1,5
2016-05-08T00:19:03,736547.0132,992.2,20.2,12.2,60,0,3.6,20.2,SE,1.1,5
2016-05-08T00:24:03,736547.0167,992.1,20,12,60,0,1.1,20,SE,0,5
2016-05-08T00:29:03,736547.0202,992.2,19.9,11.9,60,0,1.1,19.9,ESE,0,5
2016-05-08T00:34:03,736547.0236,992.3,19.7,12,61,0,1.1,19.7,NE,0,5
2016-05-08T00:39:03,736547.0271,992.2,19.6,11.9,61,0,1.1,19.6,E,1.1,5
2016-05-08T00:44:03,736547.0306,992.2,19.4,12,62,0,1.1,19.4,SE,0,5
2016-05-08T00:49:03,736547.0341,992.4,19.3,11.9,62,0,1.1,19.3,E,0,5
2016-05-08T00:54:03,736547.0375,992.3,19.1,11.9,63,0,1.1,19.1,E,0,5
2016-05-08T00:59:03,736547.041,992.6,19,12.1,64,0,1.1,19,E,0,5
2016-05-08T01:04:03,736547.0445,992.7,18.8,11.9,64,0,1.1,18.8,SE,0,5
2016-05-08T01:09:03,736547.048,992.7,18.7,12,65,0,1.1,18.7,E,0,5
2016-05-08T01:14:03,736547.0514,992.5,18.5,12.1,66,0,1.1,18.5,E,1.1,5
2016-05-08T01:19:03,736547.0549,992.5,18.4,12.2,67,0,1.1,18.4,E,1.1,5
2016-05-08T01:24:03,736547.0584,992.6,18.3,12.1,67,0,1.1,18.3,NE,1.1,5
2016-05-08T01:29:03,736547.0618,992.7,18.2,12.2,68,0,0,18.2,E,0,5
2016-05-08T01:34:03,736547.0653,992.6,18,12.3,69,0,1.1,18,E,0,5
2016-05-08T01:39:03,736547.0688,992.7,17.9,12.2,69,0,1.1,17.9,E,0,5
2016-05-08T01:44:03,736547.0723,993.1,17.7,12.2,70,0,2.5,17.7,E,1.1,5
2016-05-08T01:49:03,736547.0757,992.9,17.6,12.1,70,0,0,17.6,E,0,5
2016-05-08T01:54:03,736547.0792,992.8,17.5,12,70,0,0,17.5,E,0,5
2016-05-08T01:59:03,736547.0827,992.9,17.4,12.5,73,0,0,17.4,E,0,5
2016-05-08T02:04:03,736547.0861,993,17.3,12.4,73,0,1.1,17.3,E,0,5
2016-05-08T02:09:03,736547.0896,993.2,17.3,12.4,73,0,1.1,17.3,E,1.1,5
2016-05-08T02:14:03,736547.0931,993,17.2,12.3,73,0,2.5,17.2,NE,1.1,5
2016-05-08T02:19:03,736547.0966,993.2,17.2,12.3,73,0,1.1,17.2,SE,0,5
2016-05-08T02:24:03,736547.1,993.3,17.2,12.3,73,0,1.1,17.2,SE,0,5
2016-05-08T02:29:03,736547.1035,993.3,17.1,12.2,73,0,1.1,17.1,SE,0,5
2016-05-08T02:34:03,736547.107,993.3,17,12.1,73,0,0,17,E,0,5
2016-05-08T02:39:03,736547.1105,993.2,17,12.4,74,0,0,17,E,0,5
2016-05-08T02:44:03,736547.1139,993.6,16.9,12.3,74,0,0,16.9,E,0,5
2016-05-08T02:49:03,736547.1174,993.3,16.8,12.2,74,0,0,16.8,SE,0,5
2016-05-08T02:54:03,736547.1209,993.5,16.8,12.2,74,0,1.1,16.8,SE,0,5
2016-05-08T02:59:03,736547.1243,993.7,16.7,12.1,74,0,0,16.7,SE,0,5
2016-05-08T03:04:03,736547.1278,993.4,16.6,12,74,0,0,16.6,SE,0,5
2016-05-08T03:09:03,736547.1313,993.5,16.6,12,74,0,1.1,16.6,SE,0,5
2016-05-08T03:14:03,736547.1348,993.7,16.5,11.9,74,0,1.1,16.5,E,0,5
2016-05-08T03:19:03,736547.1382,993.6,16.5,12.1,75,0,1.1,16.5,SE,0,5
2016-05-08T03:24:03,736547.1417,993.7,16.4,12,75,0,1.1,16.4,SE,0,5
2016-05-08T03:29:03,736547.1452,993.8,16.3,11.9,75,0,0,16.3,E,0,5
2016-05-08T03:34:03,736547.1486,993.6,16.3,11.9,75,0,0,16.3,SE,0,5
2016-05-08T03:39:03,736547.1521,993.7,16.2,12,76,0,0,16.2,SE,0,5
2016-05-08T03:44:03,736547.1556,993.8,16.1,11.9,76,0,0,16.1,SE,0,5
2016-05-08T03:49:03,736547.1591,993.7,16.1,12.1,77,0,0,16.1,E,0,5
2016-05-08T03:54:03,736547.1625,993.7,16,12,77,0,0,16,ESE,0,5
2016-05-08T03:59:03,736547.166,993.6,15.9,12.1,78,0,0,15.9,SE,0,5
2016-05-08T04:04:03,736547.1695,993.7,15.9,12.1,78,0,0,15.9,E,0,5
2016-05-08T04:09:03,736547.173,993.6,15.8,12.2,79,0,0,15.8,SE,0,5
2016-05-08T04:14:03,736547.1764,993.7,15.7,12.1,79,0,0,15.7,E,0,5
2016-05-08T04:19:03,736547.1799,993.8,15.7,12.1,79,0,0,15.7,SE,0,5
2016-05-08T04:24:03,736547.1834,993.8,15.7,12.1,79,0,0,15.7,SE,0,5
2016-05-08T04:29:03,736547.1868,993.8,15.7,12.1,79,0,0,15.7,SE,0,5
2016-05-08T04:34:03,736547.1903,993.7,15.6,12,79,0,0,15.6,SE,0,5
2016-05-08T04:39:03,736547.1938,993.9,15.6,12,79,0,0,15.6,S,0,5
2016-05-08T04:44:03,736547.1973,993.7,15.5,12.1,80,0,0,15.5,SE,0,5
2016-05-08T04:49:03,736547.2007,993.8,15.4,12,80,0,0,15.4,SE,0,5
2016-05-08T04:54:03,736547.2042,993.9,15.4,12,80,0,0,15.4,SE,0,5